This is the latest recevied weather packets stored in our database for station/object GW1469. If no packets are shown the sender has not sent any weather packets the latest 10 day(s).
| Time | Temp. | Humidity | Pressure | Rain* | Wind** | Luminosity | Snow |
|---|---|---|---|---|---|---|---|
| 1777927172 | 23.89° C | 46% | 1022.3 hPa | 2.79 mm | - | - | - |
| 1777925741 | 23.33° C | 46% | 1022.3 hPa | 2.79 mm | - | - | - |
| 1777923576 | 23.89° C | 49% | 1023 hPa | 2.79 mm | - | - | - |
| 1777922842 | 22.78° C | 49% | 1023.3 hPa | 2.79 mm | - | - | - |
| 1777921789 | 22.78° C | 46% | 1023.3 hPa | 2.79 mm | - | - | - |
| 1777921053 | 21.67° C | 48% | 1023.3 hPa | 2.79 mm | - | - | - |
| 1777920335 | 22.22° C | 46% | 1023.3 hPa | 2.79 mm | - | - | - |
| 1777917800 | 21.67° C | 51% | 1023.7 hPa | 2.79 mm | - | - | - |
| 1777917468 | 20.56° C | 52% | 1023.7 hPa | 2.79 mm | - | - | - |
| 1777915633 | 20° C | 54% | 1024 hPa | 2.79 mm | - | - | - |
| 1777913498 | 18.89° C | 67% | 1025 hPa | 2.79 mm | - | - | - |
| 1777911690 | 17.78° C | 74% | 1025.3 hPa | 2.79 mm | - | - | - |
| 1777911312 | 17.78° C | 74% | 1025 hPa | 2.79 mm | - | - | - |
| 1777910082 | 17.22° C | 73% | 1025.7 hPa | 2.79 mm | - | - | - |
| 1777908269 | 15.56° C | 79% | 1025.7 hPa | 2.79 mm | - | - | - |
| 1777907533 | 14.44° C | 83% | 1026 hPa | 2.79 mm | - | - | - |
| 1777906483 | 14.44° C | 81% | 1026.4 hPa | 2.79 mm | - | - | - |
| 1777903613 | 10° C | 98% | 1026 hPa | 2.79 mm | - | - | - |
| 1777902870 | 8.89° C | 99% | 1026.7 hPa | 2.79 mm | - | - | - |
| 1777902163 | 8.33° C | 99% | 1027 hPa | 2.79 mm | - | - | - |
| 1777898905 | 7.22° C | 94% | 1027.4 hPa | 0 mm | - | - | - |
| 1777896405 | 6.67° C | 90% | 1026 hPa | 0 mm | - | - | - |
| 1777895323 | 5.56° C | 95% | 1025.3 hPa | 0 mm | - | - | - |
| 1777892430 | 5° C | 95% | 1025 hPa | 0 mm | - | - | - |
| 1777888488 | 5.56° C | 93% | 1025.3 hPa | 0 mm | - | - | - |
* Rain since midnight (hover to see other rain measurements)
** Current wind speed in m/s (hover to see current wind gust speed)